RH
31 28 23 19 17 20 18 17 14 3 3 5 8 13 18 21 25 37 38 41 45 35 33 38 44 40 29 19 12 9 9 13 17 18 18 17 20 24 23 21 17 15 17
35 35 30 24 21 19 21 18 16 7 2 3 6 9 14 17 17 21 31 41 47 47 24 20 26 23 29 26 25 25 22 16 14 15 18 24 26 25 22 23 23 19 13
48 43 38 31 29 24 24 21 17 11 2 3 4 8 12 15 16 18 24 33 44 50 47 39 26 23 22 18 21 26 27 27 27 27 28 29 26 24 25 26 26 24 17
51 47 45 42 37 34 30 25 18 16 4 2 3 6 10 15 16 16 20 28 37 47 49 48 45 42 33 27 24 23 22 21 21 24 26 25 23 25 29 31 28 24 20
54 52 48 46 46 40 36 29 20 17 9 2 2 3 6 11 16 18 21 27 33 42 44 51 48 46 46 44 41 37 32 26 21 19 19 20 22 30 35 37 38 37 32
61 56 55 50 44 41 37 30 24 19 12 2 2 2 4 6 20 22 24 27 28 38 40 46 52 50 48 48 46 44 43 42 41 38 33 31 33 35 39 49 50 42 38
64 65 58 56 52 46 38 36 29 22 16 4 2 2 3 4 19 28 28 26 26 33 40 45 47 48 54 56 56 56 55 52 49 46 43 42 43 48 56 60 60 54 46
69 72 66 59 54 49 48 44 37 28 17 4 3 8 8 12 20 27 24 26 27 38 39 43 45 47 49 55 58 59 57 56 54 55 57 58 60 61 62 62 60 57 53
70 70 66 64 55 49 45 46 46 38 28 6 4 12 12 14 24 25 28 27 30 35 37 42 46 48 49 52 51 50 50 52 52 53 56 54 54 53 51 50 50 49 53
64 68 66 59 56 56 52 45 43 43 38 20 3 10 15 12 16 15 29 28 40 39 36 36 38 37 46 49 52 50 49 49 48 46 45 43 42 41 42 43 42 43 50
64 65 66 62 53 53 50 45 39 37 40 28 7 15 19 29 26 15 24 32 39 39 44 42 40 36 37 41 51 49 47 46 45 46 46 45 44 43 40 41 44 47 47
64 60 57 64 54 50 53 49 39 36 36 31 13 10 28 32 42 41 32 29 41 43 48 51 44 42 38 42 45 46 44 44 46 46 44 37 34 41 48 45 45 52 50
70 66 57 54 58 54 53 55 46 40 38 34 15 9 18 20 27 29 55 53 43 47 49 48 43 44 37 39 40 42 40 44 36 35 35 38 42 53 46 44 43 42 48
60 76 72 60 50 52 50 53 49 43 40 33 16 9 9 11 11 14 36 74 74 63 52 35 32 41 44 42 38 37 34 35 36 38 38 34 35 50 54 46 46 42 48
56 50 64 70 56 53 51 55 58 51 43 31 17 9 7 8 8 12 22 43 58 63 81 56 36 39 48 44 40 37 38 40 44 39 31 30 30 28 29 46 44 51 46
72 58 58 68 62 58 64 61 67 59 50 34 15 6 5 3 6 8 15 28 41 44 70 84 55 45 47 45 43 43 44 43 44 31 27 27 27 24 23 25 43 54 58
95 76 75 76 75 68 72 59 61 69 63 44 19 5 3 4 5 6 9 16 37 57 48 81 79 62 53 50 51 51 39 42 39 26 23 21 20 24 22 26 39 47 62
100 96 86 82 81 76 70 67 81 71 74 57 28 7 2 4 5 5 8 27 52 86 50 59 81 79 63 56 53 46 35 44 38 25 20 19 22 23 29 36 38 42 68
98 100 97 87 96 98 95 74 86 94 82 62 38 10 3 4 6 6 90 29 33 46 74 60 50 63 74 64 59 36 39 46 38 23 19 20 23 31 26 16 22 43 60
95 98 97 96 96 96 96 92 96 94 92 81 39 13 6 13 15 12 51 51 74 39 80 83 57 42 50 62 62 29 37 51 36 23 20 23 22 20 15 9 24 22 66
90 97 98 98 93 95 96 94 93 94 93 84 70 42 9 3 11 33 83 81 98 50 61 64 43 35 45 54 44 30 30 54 35 23 21 23 20 14 8 6 15 22 62
81 95 97 96 96 97 96 94 96 96 100 97 91 43 27 20 14 85 91 97 100 95 70 92 95 42 61 53 44 42 44 60 38 25 21 22 20 15 10 14 16 18 38
83 95 97 98 97 95 98 96 97 96 96 92 89 54 65 40 16 56 87 93 98 97 68 81 94 93 76 42 41 40 65 71 43 26 14 13 12 13 14 17 17 22 26
98 97 100 98 97 96 97 97 97 97 97 96 94 94 89 76 49 25 39 75 92 90 62 81 90 94 92 68 64 46 73 73 50 30 14 7 8 8 13 21 24 29 34
100 99 95 98 98 96 96 97 96 98 97 96 97 96 96 95 94 75 50 49 55 91 77 75 83 90 97 91 88 66 76 77 59 36 16 11 14 14 18 22 26 29 34
99 99 100 100 98 96 97 98 97 97 97 97 97 97 94 96 94 84 66 63 70 62 86 83 73 86 97 91 88 99 87 84 78 56 32 20 20 23 26 28 35 40 45
Wind_Speed
21 18 17 16 15 13 10 8 5 3 4 6 8 11 12 12 13 14 14 13 12 12 13 12 12 12 13 13 13 12 11 10 9 9 7 7 7 6 6 6 6 6 6
22 20 19 18 17 15 13 11 8 5 5 7 10 12 13 13 12 13 13 13 14 12 12 11 11 12 12 11 10 9 7 7 6 6 5 4 3 3 4 4 4 4 4
25 25 23 22 20 18 16 13 11 7 6 7 9 12 13 14 14 13 14 14 14 12 11 11 10 10 10 9 9 8 7 6 4 3 3 2 1 2 2 2 3 3 4
28 27 26 25 23 21 19 16 14 11 9 8 8 11 14 15 15 14 13 13 14 14 13 11 10 10 10 9 7 7 6 5 4 4 3 3 2 2 3 3 3 3 3
29 28 27 26 24 23 21 19 16 14 11 10 9 10 12 14 16 15 14 14 13 14 14 13 12 11 10 9 8 7 5 3 3 4 4 4 4 4 5 5 6 6 5
29 29 27 27 26 25 22 20 19 17 13 12 10 11 12 14 16 16 15 14 13 13 13 15 14 13 10 8 8 7 6 7 6 6 6 6 6 7 7 8 8 9 8
32 32 30 29 28 27 25 21 19 18 16 13 12 13 13 13 15 15 15 15 15 14 14 13 13 13 13 12 10 10 9 9 9 8 8 8 9 9 9 10 10 11 10
35 33 33 32 30 27 26 23 21 20 17 15 14 14 14 14 16 17 16 16 16 16 15 14 13 13 13 13 12 12 12 11 11 10 11 11 11 12 12 12 12 13 13
40 37 35 34 33 29 27 25 23 22 19 17 16 15 15 16 18 19 19 19 19 18 16 15 14 13 14 13 12 13 12 12 11 11 12 12 12 13 14 15 15 15 16
43 41 38 38 35 31 28 26 25 24 23 19 18 18 17 18 19 20 21 21 20 19 18 17 16 17 17 16 15 15 15 13 12 12 13 13 14 14 15 16 16 16 16
45 43 42 40 36 33 32 30 28 27 25 23 20 19 18 19 21 21 22 21 20 20 20 19 19 20 19 19 18 18 17 15 15 15 15 16 17 17 18 18 17 17 17
49 45 45 42 39 37 35 33 32 30 28 25 23 21 23 22 24 24 23 22 22 22 21 21 20 19 19 19 19 20 19 18 17 16 16 17 18 17 15 16 15 16 17
49 47 47 44 43 41 38 34 34 31 30 27 26 25 26 27 27 26 25 23 23 25 23 21 21 20 20 20 19 19 19 17 16 15 15 15 15 14 14 15 15 17 18
55 51 47 46 46 45 41 38 36 34 32 30 29 29 30 30 29 29 27 26 25 24 22 23 21 21 20 19 19 19 18 17 16 15 14 15 15 15 16 16 16 17 16
56 54 50 49 45 45 43 41 38 38 35 33 32 34 33 31 30 30 30 30 27 25 24 23 22 22 21 20 20 19 18 18 17 16 16 17 17 19 19 17 18 16 17
55 57 51 50 49 46 44 41 39 39 38 35 34 35 35 33 32 33 33 31 29 28 26 24 23 23 22 22 21 20 19 19 19 16 16 17 17 17 18 17 14 12 14
54 55 53 51 50 46 46 42 41 39 39 38 37 37 38 35 34 34 34 32 28 27 28 26 24 25 24 23 21 21 20 21 19 18 16 17 16 16 16 15 12 12 11
55 53 53 52 50 48 47 45 43 41 38 40 40 40 39 37 35 34 33 32 30 30 29 29 28 26 26 24 23 23 23 23 20 18 17 17 15 14 14 12 13 19 11
57 52 53 52 49 48 46 46 45 43 43 41 41 41 39 37 36 33 33 34 31 29 31 32 32 31 29 28 26 24 23 23 21 19 18 17 15 14 12 11 12 11 13
60 54 56 55 50 47 47 47 47 47 47 43 42 42 40 38 37 34 34 33 31 32 34 34 33 33 32 31 30 27 26 25 22 20 19 18 17 17 16 14 10 7 9
63 59 60 58 56 52 51 51 49 48 48 47 44 43 41 40 37 35 34 36 36 34 37 37 36 33 32 32 31 29 29 27 24 23 21 22 20 19 19 17 13 9 10
69 61 61 62 59 54 52 50 52 51 48 46 46 45 43 41 39 40 41 41 40 36 37 37 33 34 32 32 31 31 29 29 26 25 25 25 24 22 20 19 17 13 15
73 71 60 59 61 58 53 47 47 53 52 51 49 48 44 42 40 43 44 43 41 39 40 40 38 34 34 33 34 32 31 30 32 29 28 27 27 25 23 22 20 18 16
80 78 68 63 63 58 54 50 52 50 53 51 50 49 46 43 41 43 45 46 44 42 42 41 42 40 37 34 35 33 33 33 32 31 29 28 28 27 25 24 23 22 20
78 68 77 71 65 67 53 50 54 51 54 55 54 56 49 47 46 45 44 45 47 45 43 44 42 42 40 37 35 34 35 35 35 33 32 31 31 31 29 28 28 29 25
74 76 72 75 70 62 59 56 57 52 53 57 55 57 54 53 47 47 47 48 48 50 48 46 48 48 45 42 39 37 37 38 37 37 36 37 35 34 33 32 30 30 30
Wind_Direction
225 227 230 232 231 232 230 241 238 208 188 195 186 174 163 157 154 151 148 141 137 132 131 133 136 131 126 123 118 120 122 125 125 117 113 102 96 90 82 67 57 60 66
232 231 231 234 235 236 236 241 247 244 204 196 190 188 176 172 169 162 159 154 153 152 143 139 141 139 137 134 130 128 129 132 133 127 118 113 97 83 67 60 40 41 48
230 231 231 233 238 238 240 240 249 259 242 212 197 191 184 179 180 177 173 170 164 164 167 160 157 150 148 148 150 151 155 155 161 171 177 176 102 21 23 8 3 17 26
227 228 230 232 233 236 238 239 242 250 255 236 220 200 192 185 183 187 184 183 175 175 176 177 184 179 176 167 171 170 177 183 197 211 223 246 258 314 331 334 344 355 351
226 229 229 233 234 236 237 237 239 243 245 237 229 216 204 195 189 189 192 194 187 185 184 184 193 196 197 191 193 196 202 216 235 247 254 262 270 290 302 310 313 313 318
223 227 232 233 234 236 236 236 236 240 246 238 231 226 215 205 191 192 193 196 198 198 192 192 197 202 202 201 203 203 213 225 236 246 257 270 283 292 297 302 307 309 306
223 226 227 230 231 234 235 235 236 238 244 239 230 224 219 210 200 201 198 202 206 209 204 202 204 205 202 207 208 208 214 225 236 244 257 267 273 279 285 290 296 302 304
222 223 228 231 231 230 234 234 234 235 239 240 231 219 214 207 203 203 205 208 211 212 211 210 212 218 213 211 215 217 222 226 234 245 255 261 270 276 282 287 294 297 300
223 223 226 230 232 233 232 233 234 235 236 238 232 222 213 205 205 206 207 209 211 213 215 216 215 224 228 227 226 230 233 238 243 250 261 266 273 280 284 287 289 291 294
224 224 224 228 230 233 234 234 234 234 236 238 236 223 214 213 207 209 209 212 211 214 219 221 222 227 232 233 233 236 239 242 249 256 264 272 275 280 284 287 290 291 291
225 225 226 230 232 231 232 236 236 236 233 235 235 226 213 213 210 205 213 215 216 218 223 224 225 226 229 234 237 240 244 247 250 253 259 269 275 277 280 283 285 288 288
227 227 229 230 232 234 233 233 235 235 233 232 231 224 214 213 214 208 209 210 213 216 222 224 229 230 229 233 237 244 245 246 248 254 260 267 271 273 277 283 287 287 288
227 227 230 229 231 233 235 233 236 234 232 232 234 224 220 216 216 217 212 209 211 216 221 226 232 235 234 235 238 244 247 249 256 258 263 265 270 270 280 285 286 288 287
221 222 224 227 228 232 235 236 235 236 231 230 233 229 224 222 221 219 216 211 212 219 223 228 231 234 233 235 240 247 252 252 253 256 260 262 266 277 280 283 285 287 288
223 224 221 224 226 230 231 232 228 232 230 228 231 230 227 224 223 220 219 216 216 219 221 225 227 230 234 237 240 242 245 248 249 254 257 262 271 274 276 277 281 281 284
221 226 222 226 226 228 231 229 229 230 230 229 232 234 232 228 225 222 222 222 219 219 222 222 224 227 231 237 237 238 242 246 254 254 259 265 267 272 276 279 277 283 285
217 223 222 225 227 225 229 232 230 230 230 229 232 234 233 229 225 225 226 226 223 223 223 223 222 225 228 231 234 238 243 249 254 256 258 262 266 268 273 274 269 281 283
212 219 219 223 226 226 227 227 229 229 233 231 233 234 233 231 227 226 228 228 224 223 225 225 226 227 227 229 235 244 243 246 251 257 258 261 256 256 257 261 269 278 266
207 214 217 221 225 227 227 226 228 229 231 233 234 235 234 232 230 226 219 231 227 227 231 229 231 232 231 234 238 243 239 242 250 252 253 250 244 242 244 251 270 263 250
204 208 215 219 221 223 223 222 223 225 231 232 235 235 234 232 228 225 223 234 230 232 234 237 237 236 235 236 240 244 237 240 246 246 245 242 237 242 245 248 242 262 242
205 204 212 216 218 221 223 225 224 224 230 234 236 237 236 231 225 220 220 227 233 236 237 238 243 239 237 238 241 243 237 238 242 241 240 241 240 244 242 241 241 254 218
208 203 210 219 219 223 227 227 225 226 226 229 234 236 232 230 223 219 218 221 229 233 238 239 239 238 236 238 240 237 235 236 240 239 239 240 243 242 242 243 247 240 238
205 208 207 214 216 214 224 220 215 220 223 225 230 232 233 233 229 221 222 225 227 235 239 236 237 239 241 244 241 237 236 235 236 234 237 239 243 243 245 248 250 253 256
207 209 209 212 219 213 221 217 216 220 225 226 229 230 232 230 230 229 227 228 229 237 238 237 235 240 243 245 246 241 239 238 238 239 238 239 241 245 243 248 255 255 251
201 213 211 217 214 212 214 221 221 220 227 223 227 228 225 229 226 229 228 230 231 232 233 236 238 239 241 243 245 243 239 239 240 238 239 240 241 244 247 250 256 262 261
210 206 216 222 218 221 223 220 223 222 224 224 225 228 229 227 228 231 231 229 229 233 234 233 234 238 241 242 244 244 242 239 239 240 238 241 243 245 248 254 257 261 265